Weather History for North Platte, NE

Change the Weather History Date:

Monday, February 18, 2013

  Actual Average Record
Temperature  
Mean Temperature 31 °F 30 °F  
Max Temperature 42 °F 44 °F 71 °F (2004)
Min Temperature 19 °F 16 °F -20 °F (1936)
Degree Days  
Heating Degree Days 34 35  
Month to date heating degree days 569 672  
Since 1 July heating degree days 4524 4692  
Cooling Degree Days 0 0  
Month to date cooling degree days 0 0  
Year to date cooling degree days 0 0  
Moisture  
Dew Point 19 °F    
Average Humidity 61    
Maximum Humidity 88    
Minimum Humidity 34    
Precipitation  
Precipitation 0.00 in 0.02 in 1.10 in (1971)
Month to date precipitation 0.47 0.26  
Year to date precipitation 0.71 0.60  
Snow  
Snow 0.00 in 0.20 in 5.70 in (1984)
Month to date snowfall 4.4 3.4  
Since 1 July snowfall 13.3 19.0  
Snow Depth 0.00 in    
Sea Level Pressure  
Sea Level Pressure 29.94 in    
Wind  
Wind Speed 20 mph (NNW)    
Max Wind Speed 36 mph    
Max Gust Speed 45 mph    
Visibility 10 miles    
Events      
T = Trace of Precipitation, MM = Missing Value Source: NWS Daily Summary

Daily Weather History Graph

Daily Weather History Graph

Search for Another Location

Airport:

Trip Planner

Search our weather history database for the weather conditions in past years. The results will help you decide how hot, cold, wet, or windy it might be!

Date:

Astronomy

Feb. 18, 2013 Rise Set
Actual Time 7:32 AM CST 6:20 PM CST
Civil Twilight 7:04 AM CST 6:49 PM CST
Nautical Twilight 6:32 AM CST 7:21 PM CST
Astronomical Twilight 6:00 AM CST 7:53 PM CST
Moon 12:06 PM CST (2/18) 2:15 AM CST (2/18)
Length of Visible Light 11h 44m
Length of Day
10h 48m
First Quarter, 58% of the Moon is Illuminated
Feb 18
First Quarter
Feb 25
Full
Mar 4
Last Quarter
Mar 11
New
Mar 19
First Quarter

Hourly Weather History & Observations

Time (CST) Temp. Windchill Dew Point Humidity Pressure Visibility Wind Dir Wind Speed Gust Speed Precip Events Conditions
12:53 AM 37.9 °F 28.2 °F 26.1 °F 62% 29.66 in 10.0 mi North 18.4 mph 26.5 mph N/A   Clear
1:53 AM 37.9 °F 27.6 °F 24.1 °F 57% 29.68 in 10.0 mi North 20.7 mph 27.6 mph N/A   Mostly Cloudy
2:53 AM 37.0 °F 26.7 °F 25.0 °F 62% 29.70 in 10.0 mi NNW 19.6 mph 27.6 mph N/A   Mostly Cloudy
3:53 AM 35.1 °F 22.5 °F 24.1 °F 64% 29.70 in 10.0 mi North 26.5 mph 33.4 mph N/A   Clear
4:53 AM 33.1 °F 20.1 °F 23.0 °F 66% 29.72 in 10.0 mi North 25.3 mph 34.5 mph N/A   Clear
5:53 AM 32.0 °F 19.8 °F 21.9 °F 66% 29.77 in 10.0 mi NNW 20.7 mph 29.9 mph N/A   Clear
6:53 AM 32.0 °F 18.9 °F 19.9 °F 61% 29.83 in 10.0 mi NNW 24.2 mph 33.4 mph N/A   Clear
7:53 AM 32.0 °F 18.6 °F 19.4 °F 60% 29.81 in 10.0 mi NNW 25.3 mph 36.8 mph N/A   Clear
8:53 AM 33.1 °F 21.5 °F 19.9 °F 59% 29.91 in 10.0 mi NNW 19.6 mph 29.9 mph N/A   Clear
9:53 AM 35.1 °F 22.2 °F 18.0 °F 50% 29.91 in 10.0 mi NNW 27.6 mph 44.9 mph N/A   Clear
10:53 AM 36.0 °F 23.9 °F 17.1 °F 46% 29.95 in 10.0 mi NNW 25.3 mph 35.7 mph N/A   Clear
11:53 AM 37.9 °F 26.1 °F 17.1 °F 43% 29.96 in 10.0 mi NNW 27.6 mph 38.0 mph N/A   Clear
12:53 PM 39.0 °F 27.4 °F 17.1 °F 41% 29.98 in 10.0 mi NNW 28.8 mph 38.0 mph N/A   Clear
1:53 PM 39.0 °F 27.8 °F 16.0 °F 39% 29.98 in 10.0 mi NNW 26.5 mph 38.0 mph N/A   Partly Cloudy
2:53 PM 37.9 °F 26.8 °F 16.0 °F 41% 29.99 in 10.0 mi NNW 24.2 mph 35.7 mph N/A   Partly Cloudy
3:53 PM 41.0 °F 30.7 °F 16.0 °F 36% 30.00 in 10.0 mi NNW 25.3 mph 33.4 mph N/A   Scattered Clouds
4:53 PM 39.0 °F 29.0 °F 14.0 °F 36% 30.02 in 10.0 mi NNW 20.7 mph 29.9 mph N/A   Partly Cloudy
5:53 PM 37.0 °F 27.7 °F 12.9 °F 37% 30.04 in 10.0 mi NNW 16.1 mph 26.5 mph N/A   Clear
6:53 PM 33.1 °F 25.5 °F 15.1 °F 48% 30.07 in 10.0 mi NNW 9.2 mph - N/A   Mostly Cloudy
7:53 PM 28.9 °F 20.4 °F 16.0 °F 58% 30.09 in 10.0 mi North 9.2 mph - N/A   Clear
8:53 PM 27.0 °F 19.5 °F 19.9 °F 75% 30.13 in 10.0 mi NNW 6.9 mph - N/A   Scattered Clouds
9:53 PM 23.0 °F 13.9 °F 19.0 °F 85% 30.17 in 10.0 mi West 8.1 mph - N/A   Mostly Cloudy
10:53 PM 19.9 °F 11.1 °F 16.0 °F 85% 30.19 in 10.0 mi West 6.9 mph - N/A   Partly Cloudy
11:53 PM 19.9 °F 11.1 °F 15.1 °F 81% 30.21 in 10.0 mi WNW 6.9 mph - N/A   Clear